Location: *
(58.7167°N, 26.1833°E)
Time: 16:57:43
(UTC+00:00)

Meteor 1-24 Rocket - Pass Details

Date: 25 August 2019
Orbit: 791 x 926 km, 81.2° (Epoch: 16 October)

Event Time Altitude Azimuth Distance (km) Brightness Sun altitude
Rises 21:33:33 0° 343° (NNW) 3,310 8.4 -20.1°
Reaches altitude 10° 21:35:55 10° 343° (NNW) 2,381 7.3 -20.2°
Maximum altitude 21:41:17 87° 258° (WSW) 817 3.5 -20.3°
Enters shadow 21:43:15 41° 169° (SSE) 1,160 3.9 -20.3°
